Location: Spears Village
(29.9615°N, 95.2834°W)
Time: 19:15:09
(UTC+00:00)

LightSail 2 - Visible Passes

Search period start: 29 January 2020 00:00
Search period end: 08 February 2020 00:00
Orbit: 704 x 719 km, 24.0° (Epoch: 28 January)

Date Brightness Start Highest point End Pass type
(mag) Time Alt. Az. Time Alt. Az. Time Alt. Az.
29 Jan 6.9 00:25:40 10° WSW 00:29:58 27° SSW 00:34:18 10° SE visible
29 Jan 7.7 02:13:29 10° SW 02:14:56 11° SSW 02:16:21 10° S visible
30 Jan 7.6 01:13:40 10° SW 01:16:35 15° SSW 01:19:29 10° SSE visible
